Location: Nickerson Gardens
(33.9320°N, 118.2484°W)
Time: 08:26:07
(UTC+00:00)

Meteor 2-10 Rocket - Pass Details

Date: 29 October 2020
Orbit: 733 x 885 km, 81.2° (Epoch: 28 November)

Event Time Altitude Azimuth Distance (km) Brightness Sun altitude
Rises 13:12:04 0° 354° (N) 3,171 6.6 -12.6°
Reaches altitude 10° 13:14:24 10° 357° (N) 2,252 5.8 -12.2°
Maximum altitude 13:19:25 71° 81° (E) 795 3.8 -11.1°
Drops below altitude 10° 13:24:34 10° 166° (SSE) 2,303 6.3 -10.1°
Sets 13:26:58 0° 168° (SSE) 3,248 7.1 -9.6°
